TimeEDT,TemperatureF,Dew PointF,Humidity,Sea Level PressureIn,VisibilityMPH,Wind Direction,Wind SpeedMPH,Gust SpeedMPH,PrecipitationIn,Events,Conditions,WindDirDegrees,DateUTC
12:55 AM,46.9,40.8,79,29.55,10.0,SSW,4.6,-,N/A,,Mostly Cloudy,200,2012-11-01 04:55:00
1:55 AM,46.6,40.8,80,29.55,10.0,South,4.6,-,N/A,,Overcast,180,2012-11-01 05:55:00
2:55 AM,44.8,39.2,81,29.54,10.0,South,4.6,-,N/A,,Mostly Cloudy,190,2012-11-01 06:55:00
3:55 AM,43.9,38.7,82,29.53,10.0,South,3.5,-,N/A,,Mostly Cloudy,190,2012-11-01 07:55:00
4:55 AM,44.2,40.3,86,29.54,10.0,SSE,3.5,-,N/A,,Overcast,160,2012-11-01 08:55:00
5:10 AM,44.6,41.0,87,29.54,10.0,SSE,3.5,-,N/A,,Overcast,150,2012-11-01 09:10:00
5:38 AM,44.6,41.0,87,29.53,10.0,SE,4.6,-,N/A,,Overcast,140,2012-11-01 09:38:00
5:55 AM,45.3,40.3,83,29.53,10.0,SE,4.6,-,N/A,,Overcast,130,2012-11-01 09:55:00
6:55 AM,45.9,40.1,80,29.54,10.0,South,4.6,-,N/A,,Overcast,170,2012-11-01 10:55:00
7:55 AM,45.3,39.2,79,29.55,10.0,South,4.6,-,N/A,,Mostly Cloudy,190,2012-11-01 11:55:00
8:55 AM,46.2,40.1,79,29.56,10.0,SSW,6.9,-,N/A,,Mostly Cloudy,210,2012-11-01 12:55:00
9:55 AM,48.6,38.5,68,29.56,10.0,SSW,9.2,-,N/A,,Mostly Cloudy,200,2012-11-01 13:55:00
10:55 AM,51.8,38.1,60,29.55,10.0,WSW,5.8,-,N/A,,Mostly Cloudy,240,2012-11-01 14:55:00
11:55 AM,52.7,37.4,56,29.53,10.0,SW,9.2,-,N/A,,Mostly Cloudy,220,2012-11-01 15:55:00
12:55 PM,54.7,38.3,54,29.51,10.0,Variable,6.9,-,N/A,,Mostly Cloudy,0,2012-11-01 16:55:00
1:55 PM,55.9,38.1,51,29.49,10.0,West,9.2,-,N/A,,Mostly Cloudy,260,2012-11-01 17:55:00
2:55 PM,55.6,38.1,52,29.49,10.0,WSW,9.2,-,N/A,,Mostly Cloudy,240,2012-11-01 18:55:00
3:55 PM,54.3,37.8,54,29.50,10.0,SW,6.9,-,N/A,,Scattered Clouds,230,2012-11-01 19:55:00
4:55 PM,52.3,37.9,58,29.50,10.0,West,6.9,-,N/A,,Mostly Cloudy,260,2012-11-01 20:55:00
5:55 PM,49.3,38.3,66,29.51,10.0,WNW,4.6,-,N/A,,Mostly Cloudy,290,2012-11-01 21:55:00
6:55 PM,49.5,39.2,68,29.52,10.0,Calm,Calm,-,N/A,,Mostly Cloudy,0,2012-11-01 22:55:00
7:55 PM,49.8,39.6,68,29.52,10.0,WSW,3.5,-,N/A,,Mostly Cloudy,240,2012-11-01 23:55:00
8:55 PM,49.1,39.6,70,29.53,10.0,Calm,Calm,-,N/A,,Mostly Cloudy,0,2012-11-02 00:55:00
9:55 PM,48.2,39.7,73,29.53,10.0,SW,3.5,-,N/A,,Overcast,220,2012-11-02 01:55:00
10:55 PM,46.9,39.9,77,29.53,10.0,SW,3.5,-,N/A,,Mostly Cloudy,220,2012-11-02 02:55:00
11:55 PM,48.0,39.9,74,29.53,10.0,WSW,5.8,-,N/A,,Mostly Cloudy,240,2012-11-02 03:55:00